Weather History for Flag Island, MN

Change the Weather History Date:

Saturday, December 17, 2011

  Actual Average Record
Temperature  
Mean Temperature 18 °F -  
Max Temperature 24 °F 15 °F 37 °F (2004)
Min Temperature 12 °F 2 °F -16 °F (2000)
Degree Days  
Heating Degree Days 47    
Moisture  
Dew Point 18 °F    
Average Humidity 83    
Maximum Humidity 93    
Minimum Humidity 74    
Precipitation  
Precipitation 0.00 in - - ()
Sea Level Pressure  
Sea Level Pressure 29.95 in    
Wind  
Wind Speed 12 mph (WSW)    
Max Wind Speed 17 mph    
Max Gust Speed 22 mph    
Visibility 10 miles    
Events Snow    
Averages and records for this station are not official NWS values.
T = Trace of Precipitation, MM = Missing Value Source: NWS Daily Summary

Daily Weather History Graph

Daily Weather History Graph

Search for Another Location

Airport:

Trip Planner

Search our weather history database for the weather conditions in past years. The results will help you decide how hot, cold, wet, or windy it might be!

Date:

Astronomy

Dec. 17, 2011 Rise Set
Actual Time 8:09 AM CST 4:21 PM CST
Civil Twilight 7:32 AM CST 4:59 PM CST
Nautical Twilight 6:51 AM CST 5:40 PM CST
Astronomical Twilight 6:12 AM CST 6:18 PM CST
Moon No Moon Rise 11:49 AM CST (12/17)
Length of Visible Light 9h 27m
Length of Day
8h 11m
Waning Gibbous, 53% of the Moon is Illuminated
Dec 17
Waning Gibbous
Dec 17
Last Quarter
Dec 24
New
Jan 1
First Quarter
Jan 9
Full

Hourly Weather History & Observations

Time (CST) Temp. Windchill Dew Point Humidity Pressure Visibility Wind Dir Wind Speed Gust Speed Precip Events Conditions
12:14 AM 12.2 °F -3.1 °F 10.4 °F 92% 30.11 in 10.0 mi South 13.8 mph - N/A   Scattered Clouds
12:33 AM 12.2 °F -3.7 °F 10.4 °F 92% 30.08 in 10.0 mi South 15.0 mph - N/A   Mostly Cloudy
12:53 AM 15.8 °F 3.4 °F 10.4 °F 79% 30.07 in 10.0 mi South 10.4 mph - N/A   Overcast
1:14 AM 15.8 °F 3.4 °F 12.2 °F 86% 30.06 in 10.0 mi South 10.4 mph - N/A   Overcast
1:33 AM 17.6 °F 5.0 °F 14.0 °F 86% 30.04 in 10.0 mi South 11.5 mph 17.3 mph N/A   Overcast
1:53 AM 17.6 °F 3.2 °F 14.0 °F 86% 30.02 in 10.0 mi South 15.0 mph 18.4 mph N/A   Overcast
2:13 AM 17.6 °F 4.3 °F 14.0 °F 86% 30.01 in 10.0 mi South 12.7 mph - N/A   Overcast
2:33 AM 17.6 °F 5.0 °F 15.8 °F 93% 30.00 in 10.0 mi South 11.5 mph - N/A   Overcast
2:53 AM 17.6 °F 3.2 °F 15.8 °F 93% 29.98 in 10.0 mi South 15.0 mph - N/A   Overcast
3:14 AM 19.4 °F 5.0 °F 15.8 °F 86% 29.95 in 10.0 mi South 16.1 mph - N/A   Overcast
3:33 AM 19.4 °F 7.9 °F 17.6 °F 93% 29.96 in 10.0 mi SSW 10.4 mph - N/A   Overcast
3:53 AM 19.4 °F 7.9 °F 17.6 °F 93% 29.97 in 2.0 mi SSW 10.4 mph 18.4 mph N/A Snow Light Snow
4:13 AM 19.4 °F 9.5 °F 17.6 °F 93% 29.95 in 1.2 mi SW 8.1 mph 18.4 mph N/A Snow Light Snow
4:33 AM 21.2 °F 10.9 °F 17.6 °F 86% 29.95 in 0.5 mi SW 9.2 mph - N/A Snow Snow
4:53 AM 21.2 °F 12.6 °F 19.4 °F 93% 29.93 in 7.0 mi SSW 6.9 mph - N/A Snow Light Snow
5:13 AM 21.2 °F 12.6 °F 19.4 °F 93% 29.93 in 10.0 mi SSW 6.9 mph - N/A   Overcast
5:34 AM 21.2 °F 11.7 °F 19.4 °F 93% 29.92 in 10.0 mi SW 8.1 mph - N/A   Overcast
5:53 AM 21.2 °F 11.7 °F 19.4 °F 93% 29.91 in 10.0 mi SW 8.1 mph - N/A   Overcast
6:14 AM 21.2 °F 12.6 °F 19.4 °F 93% 29.90 in 10.0 mi SSW 6.9 mph - N/A   Overcast
6:34 AM 21.2 °F 11.7 °F 19.4 °F 93% 29.89 in 10.0 mi SW 8.1 mph - N/A   Overcast
6:53 AM 21.2 °F 10.9 °F 19.4 °F 93% 29.89 in 10.0 mi SW 9.2 mph - N/A   Overcast
7:13 AM 23.0 °F 12.4 °F 19.4 °F 86% 29.89 in 10.0 mi WSW 10.4 mph - N/A   Overcast
7:34 AM 23.0 °F 13.9 °F 19.4 °F 86% 29.89 in 10.0 mi WSW 8.1 mph - N/A   Overcast
7:53 AM 23.0 °F 13.9 °F 19.4 °F 86% 29.88 in 10.0 mi SW 8.1 mph - N/A   Overcast
8:13 AM 23.0 °F 13.9 °F 19.4 °F 86% 29.88 in 10.0 mi WSW 8.1 mph - N/A   Overcast
8:33 AM 23.0 °F 12.4 °F 19.4 °F 86% 29.88 in 10.0 mi West 10.4 mph - N/A   Overcast
8:53 AM 24.8 °F 14.6 °F 21.2 °F 86% 29.89 in 10.0 mi West 10.4 mph - N/A   Overcast
9:14 AM 24.8 °F 14.0 °F 21.2 °F 86% 29.90 in 10.0 mi West 11.5 mph - N/A   Overcast
9:33 AM 24.8 °F 13.4 °F 19.4 °F 80% 29.90 in 10.0 mi West 12.7 mph 17.3 mph N/A   Overcast
9:53 AM 24.8 °F 12.9 °F 19.4 °F 80% 29.91 in 10.0 mi West 13.8 mph - N/A   Overcast
10:13 AM 24.8 °F 14.0 °F 19.4 °F 80% 29.91 in 10.0 mi West 11.5 mph - N/A   Overcast
10:33 AM 24.8 °F 13.4 °F 19.4 °F 80% 29.91 in 10.0 mi West 12.7 mph - N/A   Overcast
10:53 AM 24.8 °F 14.0 °F 19.4 °F 80% 29.92 in 10.0 mi West 11.5 mph - N/A   Overcast
11:14 AM 24.8 °F 13.4 °F 19.4 °F 80% 29.92 in 10.0 mi West 12.7 mph - N/A   Overcast
11:33 AM 24.8 °F 11.9 °F 19.4 °F 80% 29.93 in 10.0 mi West 16.1 mph - N/A   Overcast
11:54 AM 24.8 °F 12.9 °F 19.4 °F 80% 29.93 in 10.0 mi West 13.8 mph - N/A   Overcast
12:13 PM 24.8 °F 12.4 °F 19.4 °F 80% 29.93 in 10.0 mi WNW 15.0 mph - N/A   Overcast
12:33 PM 24.8 °F 12.9 °F 19.4 °F 80% 29.93 in 10.0 mi WNW 13.8 mph - N/A   Overcast
12:54 PM 24.8 °F 11.5 °F 19.4 °F 80% 29.94 in 10.0 mi WNW 17.3 mph - N/A   Overcast
1:13 PM 24.8 °F 11.9 °F 17.6 °F 74% 29.95 in 10.0 mi WNW 16.1 mph 21.9 mph N/A   Overcast
1:33 PM 24.8 °F 11.5 °F 17.6 °F 74% 29.95 in 10.0 mi WNW 17.3 mph - N/A   Overcast
1:54 PM 24.8 °F 12.9 °F 19.4 °F 80% 29.95 in 10.0 mi WNW 13.8 mph - N/A   Overcast
2:33 PM 24.8 °F 11.9 °F 17.6 °F 74% 29.96 in 10.0 mi WNW 16.1 mph - N/A   Overcast
2:54 PM 24.8 °F 12.9 °F 17.6 °F 74% 29.96 in 10.0 mi NW 13.8 mph - N/A   Overcast
3:13 PM 24.8 °F 12.4 °F 17.6 °F 74% 29.97 in 10.0 mi WNW 15.0 mph - N/A   Overcast
3:33 PM 24.8 °F 14.0 °F 17.6 °F 74% 29.98 in 10.0 mi West 11.5 mph - N/A   Overcast
3:53 PM 24.8 °F 14.0 °F 17.6 °F 74% 29.98 in 10.0 mi WNW 11.5 mph - N/A   Overcast
4:13 PM 24.8 °F 14.6 °F 17.6 °F 74% 29.99 in 10.0 mi West 10.4 mph - N/A   Overcast
4:33 PM 24.8 °F 16.1 °F 17.6 °F 74% 29.99 in 10.0 mi West 8.1 mph - N/A   Overcast
4:54 PM 24.8 °F 19.1 °F 17.6 °F 74% 29.99 in 10.0 mi West 4.6 mph - N/A   Overcast
5:13 PM 24.8 °F 16.9 °F 17.6 °F 74% 29.99 in 10.0 mi West 6.9 mph - N/A   Overcast
5:33 PM 24.8 °F 16.9 °F 17.6 °F 74% 30.00 in 10.0 mi West 6.9 mph - N/A   Overcast
5:53 PM 24.8 °F 17.9 °F 17.6 °F 74% 30.00 in 10.0 mi WSW 5.8 mph - N/A   Overcast
6:13 PM 24.8 °F 17.9 °F 17.6 °F 74% 30.00 in 10.0 mi WSW 5.8 mph - N/A   Overcast
6:34 PM 24.8 °F 16.1 °F 17.6 °F 74% 30.00 in 10.0 mi WSW 8.1 mph - N/A   Overcast
6:53 PM 23.0 °F 14.7 °F 17.6 °F 80% 30.00 in 10.0 mi WSW 6.9 mph - N/A   Mostly Cloudy
7:13 PM 21.2 °F 14.9 °F 17.6 °F 86% 29.99 in 10.0 mi SW 4.6 mph - N/A   Scattered Clouds
7:33 PM 21.2 °F 14.9 °F 15.8 °F 80% 29.99 in 10.0 mi SW 4.6 mph - N/A   Clear
7:53 PM 19.4 °F 14.3 °F 15.8 °F 86% 29.99 in 10.0 mi SSW 3.5 mph - N/A   Clear
8:14 PM 19.4 °F 12.8 °F 15.8 °F 86% 29.99 in 10.0 mi SW 4.6 mph - N/A   Clear
8:33 PM 17.6 °F 12.3 °F 15.8 °F 93% 29.98 in 10.0 mi SSW 3.5 mph - N/A   Clear
8:53 PM 17.6 °F 10.7 °F 15.8 °F 93% 29.97 in 10.0 mi SW 4.6 mph - N/A   Clear
9:14 PM 19.4 °F 14.3 °F 15.8 °F 86% 29.96 in 10.0 mi SSW 3.5 mph - N/A   Clear
9:33 PM 19.4 °F - 15.8 °F 86% 29.96 in 10.0 mi Calm Calm - N/A   Clear
9:53 PM 19.4 °F 14.3 °F 15.8 °F 86% 29.95 in 10.0 mi SSW 3.5 mph - N/A   Mostly Cloudy
10:14 PM 19.4 °F 12.8 °F 15.8 °F 86% 29.95 in 10.0 mi SSW 4.6 mph - N/A   Overcast
10:33 PM 19.4 °F 14.3 °F 15.8 °F 86% 29.95 in 10.0 mi SSW 3.5 mph - N/A   Overcast
10:54 PM 19.4 °F 12.8 °F 15.8 °F 86% 29.94 in 10.0 mi SSW 4.6 mph - N/A   Overcast
11:13 PM 19.4 °F 14.3 °F 17.6 °F 93% 29.93 in 10.0 mi SW 3.5 mph - N/A   Overcast
11:33 PM 19.4 °F - 17.6 °F 93% 29.93 in 10.0 mi Calm Calm - N/A   Overcast
11:53 PM 21.2 °F 14.9 °F 17.6 °F 86% 29.91 in 10.0 mi SSE 4.6 mph - N/A   Overcast